South Haven, MI

2:24 PM EST on December 04, 2016 (GMT -0500)
South Haven

Weather History for KLWA - January, 2014

Change the Weather History Date:

Sunday, January 26, 2014

  Actual Average (KBIV) Record (KBIV)
Temperature  
Mean Temperature 18 °F 26 °F  
Max Temperature 30 °F 32 °F 67 °F (1950)
Min Temperature 6 °F 19 °F -10 °F (1987)
Degree Days  
Heating Degree Days 48 39  
Month to date heating degree days 1005  
Since 1 July heating degree days 3273  
Cooling Degree Days 0 0  
Month to date cooling degree days 0  
Year to date cooling degree days 0  
Moisture  
Dew Point 12 °F    
Average Humidity 77    
Maximum Humidity 93    
Minimum Humidity 62    
Precipitation  
Precipitation 0.00 in 0.08 in 1.10 in (1978)
Month to date precipitation 1.77  
Year to date precipitation 1.77  
Sea Level Pressure  
Sea Level Pressure 29.52 in    
Wind  
Wind Speed 10 mph (SW)    
Max Wind Speed 22 mph    
Max Gust Speed 33 mph    
Visibility 6 miles    
Events Snow    
T = Trace of Precipitation, MM = Missing Value Source: NWS Daily Summary

Daily Weather History Graph

Daily Weather History Graph

Search for Another Location

Airport or City:

Trip Planner

Search our weather history database for the weather conditions in past years. The results will help you decide how hot, cold, wet, or windy it might be!

Date:

Astronomy

Jan. 26, 2014 Rise Set
Actual Time 8:04 AM EST 5:51 PM EST
Civil Twilight 7:34 AM EST 6:21 PM EST
Nautical Twilight 7:00 AM EST 6:55 PM EST
Astronomical Twilight 6:26 AM EST 7:28 PM EST
Moon 3:41 AM EST (1/26) 1:39 PM EST (1/26)
Length of Visible Light 10h 47m
Length of Day
9h 47m
Waning Crescent, 24% of the Moon is Illuminated
Jan 26
Waning Crescent
Jan 30
New
Feb 6
First Quarter
Feb 14
Full
Feb 22
Last Quarter

Hourly Weather History & Observations

Time (EST) Temp. Windchill Dew Point Humidity Pressure Visibility Wind Dir Wind Speed Gust Speed Precip Events Conditions
12:15 AM 14.0 °F 0.5 °F 3.2 °F 62% 29.76 in 10.0 mi WNW 11.5 mph 16.1 mph N/A   Overcast
12:35 AM 14.0 °F 0.5 °F 3.7 °F 64% 29.76 in 10.0 mi WNW 11.5 mph - N/A   Overcast
12:55 AM 14.0 °F 2.0 °F 4.3 °F 65% 29.76 in 10.0 mi WNW 9.2 mph - N/A   Overcast
1:15 AM 14.0 °F 2.0 °F 3.9 °F 64% 29.74 in 10.0 mi WNW 9.2 mph - N/A   Overcast
1:35 AM 14.0 °F 6.5 °F 3.7 °F 64% 29.73 in 10.0 mi West 4.6 mph - N/A   Overcast
1:55 AM 14.0 °F 5.1 °F 4.5 °F 66% 29.72 in 10.0 mi West 5.8 mph - N/A   Overcast
2:15 AM 14.0 °F 5.1 °F 4.6 °F 66% 29.72 in 10.0 mi West 5.8 mph - N/A   Overcast
2:35 AM 14.0 °F 8.2 °F 5.0 °F 67% 29.70 in 10.0 mi SW 3.5 mph - N/A   Overcast
2:55 AM 14.0 °F 6.5 °F 5.2 °F 68% 29.68 in 10.0 mi SW 4.6 mph - N/A   Overcast
3:15 AM 13.6 °F 4.6 °F 5.4 °F 70% 29.67 in 10.0 mi South 5.8 mph - N/A   Overcast
3:35 AM 13.5 °F 5.8 °F 5.4 °F 70% 29.67 in 10.0 mi South 4.6 mph - N/A   Overcast
3:55 AM 13.1 °F 4.0 °F 5.0 °F 70% 29.67 in 10.0 mi SSW 5.8 mph - N/A   Overcast
4:15 AM 13.1 °F 2.8 °F 5.0 °F 70% 29.67 in 10.0 mi SSW 6.9 mph - N/A   Overcast
4:35 AM 13.1 °F 2.8 °F 4.8 °F 70% 29.67 in 10.0 mi South 6.9 mph - N/A   Overcast
4:55 AM 12.2 °F -1.0 °F 4.1 °F 70% 29.65 in 10.0 mi South 10.4 mph - N/A   Overcast
5:15 AM 10.4 °F -1.5 °F 4.6 °F 78% 29.65 in 4.0 mi South 8.1 mph - N/A Snow Light Snow
5:35 AM 9.5 °F -4.4 °F 4.6 °F 81% 29.65 in 4.0 mi South 10.4 mph - N/A Snow Light Snow
5:55 AM 8.4 °F -5.7 °F 4.1 °F 83% 29.63 in 2.5 mi South 10.4 mph - N/A Snow Light Snow
6:15 AM 8.1 °F -5.3 °F 4.1 °F 84% 29.62 in 2.0 mi South 9.2 mph - N/A Snow Light Snow
6:35 AM 7.5 °F -3.9 °F 3.4 °F 83% 29.60 in 1.8 mi South 6.9 mph - N/A Snow Light Snow
6:55 AM 7.3 °F -5.2 °F 3.0 °F 82% 29.58 in 1.8 mi SSE 8.1 mph - N/A Snow Light Snow
7:15 AM 7.2 °F -4.3 °F 3.0 °F 83% 29.57 in 1.8 mi SSE 6.9 mph - N/A Snow Light Snow
7:35 AM 6.8 °F -4.8 °F 3.0 °F 84% 29.56 in 1.5 mi SSE 6.9 mph - N/A Snow Light Snow
7:55 AM 6.8 °F -6.9 °F 3.0 °F 84% 29.55 in 1.2 mi SSE 9.2 mph - N/A Snow Light Snow
8:15 AM 6.8 °F -5.9 °F 3.0 °F 84% 29.55 in 0.5 mi SSE 8.1 mph - N/A Snow Snow
8:35 AM 6.8 °F -5.9 °F 3.0 °F 84% 29.53 in 0.8 mi SSE 8.1 mph - N/A Snow Light Snow
8:55 AM 6.8 °F -5.9 °F 3.0 °F 84% 29.53 in 0.5 mi SSE 8.1 mph - N/A Snow Light Snow
9:15 AM 7.2 °F -4.3 °F 3.0 °F 83% 29.54 in 0.8 mi SSE 6.9 mph - N/A Snow Light Snow
9:35 AM 7.3 °F -6.2 °F 3.2 °F 83% 29.52 in 0.8 mi SSE 9.2 mph - N/A Snow Light Snow
9:55 AM 7.7 °F -5.8 °F 3.6 °F 83% 29.48 in 1.2 mi SSE 9.2 mph - N/A Snow Light Snow
10:15 AM 8.1 °F -5.3 °F 3.7 °F 83% 29.48 in 1.5 mi SSE 9.2 mph - N/A Snow Light Snow
10:35 AM 9.1 °F -4.0 °F 4.1 °F 80% 29.47 in 5.0 mi SSE 9.2 mph - N/A Snow Light Snow
10:55 AM 10.0 °F -2.9 °F 5.0 °F 80% 29.45 in 7.0 mi SSE 9.2 mph - N/A Snow Light Snow
11:15 AM 10.9 °F -1.8 °F 5.9 °F 80% 29.44 in 4.0 mi SSE 9.2 mph - N/A Snow Light Snow
11:35 AM 12.2 °F -0.2 °F 7.0 °F 80% 29.43 in 10.0 mi South 9.2 mph - N/A   Overcast
11:55 AM 13.6 °F 3.5 °F 8.2 °F 79% 29.42 in 10.0 mi South 6.9 mph - N/A   Overcast
12:15 PM 14.9 °F 3.1 °F 9.5 °F 79% 29.41 in 10.0 mi South 9.2 mph - N/A   Overcast
12:35 PM 16.5 °F 4.3 °F 10.4 °F 77% 29.39 in 10.0 mi South 10.4 mph - N/A   Overcast
12:55 PM 17.8 °F 6.6 °F 10.9 °F 75% 29.39 in 10.0 mi South 9.2 mph - N/A   Overcast
1:15 PM 19.4 °F 9.5 °F 12.2 °F 74% 29.39 in 10.0 mi SSW 8.1 mph - N/A   Overcast
1:35 PM 20.8 °F 9.0 °F 13.6 °F 74% 29.37 in 10.0 mi SW 11.5 mph 16.1 mph N/A   Overcast
1:55 PM 21.9 °F 12.5 °F 15.4 °F 76% 29.36 in 7.0 mi SSW 8.1 mph - N/A   Overcast
2:15 PM 23.7 °F 13.3 °F 18.1 °F 79% 29.36 in 10.0 mi WSW 10.4 mph - N/A   Overcast
2:35 PM 25.3 °F 13.1 °F 19.0 °F 77% 29.35 in 10.0 mi WSW 15.0 mph 24.2 mph N/A   Overcast
2:55 PM 25.5 °F 12.9 °F 19.4 °F 78% 29.36 in 10.0 mi WSW 16.1 mph 23.0 mph N/A   Overcast
3:15 PM 25.9 °F 13.3 °F 19.9 °F 78% 29.37 in 10.0 mi West 16.1 mph 21.9 mph N/A   Overcast
3:35 PM 26.6 °F 14.7 °F 20.5 °F 78% 29.39 in 10.0 mi West 15.0 mph 25.3 mph N/A   Overcast
3:55 PM 26.8 °F 14.9 °F 20.5 °F 77% 29.39 in 10.0 mi West 15.0 mph 21.9 mph N/A   Overcast
4:15 PM 27.1 °F 16.9 °F 20.1 °F 75% 29.40 in 10.0 mi West 11.5 mph 21.9 mph N/A   Mostly Cloudy
4:35 PM 27.0 °F 15.6 °F 20.3 °F 76% 29.40 in 10.0 mi West 13.8 mph 18.4 mph N/A   Overcast
4:55 PM 27.0 °F 15.2 °F 20.1 °F 75% 29.42 in 10.0 mi West 15.0 mph 23.0 mph N/A   Overcast
5:15 PM 27.0 °F 15.6 °F 20.3 °F 76% 29.44 in 7.0 mi West 13.8 mph 24.2 mph N/A   Overcast
5:35 PM 26.6 °F 15.2 °F 19.6 °F 75% 29.44 in 10.0 mi West 13.8 mph 21.9 mph N/A   Overcast
5:55 PM 27.3 °F 19.9 °F 19.8 °F 73% 29.44 in 10.0 mi West 6.9 mph - N/A   Overcast
6:15 PM 27.9 °F 20.6 °F 21.2 °F 76% 29.44 in 10.0 mi West 6.9 mph 17.3 mph N/A   Overcast
6:35 PM 28.2 °F 22.0 °F 21.6 °F 76% 29.44 in 10.0 mi WSW 5.8 mph - N/A   Overcast
6:55 PM 29.1 °F 21.3 °F 22.6 °F 77% 29.43 in 10.0 mi WSW 8.1 mph - N/A   Overcast
7:15 PM 29.3 °F 19.6 °F 23.0 °F 77% 29.43 in 10.0 mi WSW 11.5 mph 18.4 mph N/A   Overcast
7:35 PM 29.7 °F 20.7 °F 23.7 °F 79% 29.44 in 7.0 mi WSW 10.4 mph 16.1 mph N/A Snow Light Snow
7:55 PM 29.8 °F 18.9 °F 23.0 °F 76% 29.44 in 5.0 mi West 15.0 mph 24.2 mph N/A Snow Light Snow
8:15 PM 28.6 °F 17.2 °F 22.3 °F 77% 29.45 in 3.0 mi West 15.0 mph 28.8 mph N/A Snow Light Snow
8:35 PM 27.0 °F 13.9 °F 21.9 °F 81% 29.46 in 3.0 mi West 18.4 mph 26.5 mph N/A Snow Light Snow
8:55 PM 26.6 °F 12.7 °F 22.6 °F 85% 29.45 in 1.2 mi West 20.7 mph 31.1 mph N/A Snow Light Snow
9:15 PM 25.7 °F 13.5 °F 22.8 °F 89% 29.45 in 1.5 mi West 15.0 mph 23.0 mph N/A Snow Light Snow
9:35 PM 25.5 °F 12.0 °F 22.8 °F 89% 29.47 in 1.2 mi WNW 18.4 mph 25.3 mph N/A Snow Light Snow
9:55 PM 24.4 °F 12.4 °F 22.1 °F 91% 29.48 in 0.5 mi WNW 13.8 mph 25.3 mph N/A Snow Heavy Snow
10:15 PM 23.9 °F 12.9 °F 22.1 °F 93% 29.49 in 0.8 mi WNW 11.5 mph 21.9 mph N/A Snow Snow
10:35 PM 23.9 °F 10.8 °F 17.2 °F 76% 29.49 in 4.0 mi West 16.1 mph 21.9 mph N/A Snow Light Snow
10:55 PM 23.9 °F 11.2 °F 14.9 °F 69% 29.50 in 3.0 mi West 15.0 mph 33.4 mph N/A Snow Light Snow
11:15 PM 23.2 °F 9.4 °F 14.4 °F 69% 29.51 in 4.0 mi West 17.3 mph 28.8 mph N/A   Haze
11:35 PM 22.3 °F 7.0 °F 12.2 °F 65% 29.52 in 3.0 mi West 20.7 mph 29.9 mph N/A Snow Light Snow
11:55 PM 19.6 °F 3.1 °F 16.2 °F 87% 29.54 in 0.5 mi West 21.9 mph 32.2 mph N/A Snow Heavy Snow